Hinckley, MN

3:23 PM CDT on August 21, 2017 (GMT -0500)
Hinckley

Weather History for K04W - August, 2013

Change the Weather History Date:

Saturday, August 10, 2013

  Actual Average (KJMR) Record (KJMR)
Temperature  
Mean Temperature 62 °F -  
Max Temperature 73 °F 79 °F 101 °F (1947)
Min Temperature 50 °F 50 °F 32 °F (1982)
Degree Days  
Heating Degree Days 3    
Growing Degree Days 12 (Base 50)    
Moisture  
Dew Point 54 °F    
Average Humidity 75    
Maximum Humidity 100    
Minimum Humidity 47    
Precipitation  
Precipitation 0.00 in - - ()
Sea Level Pressure  
Sea Level Pressure 30.15 in    
Wind  
Wind Speed 2 mph (WSW)    
Max Wind Speed 8 mph    
Max Gust Speed -    
Visibility 10 miles    
Events      
Averages and records for this station are not official NWS values.
T = Trace of Precipitation, MM = Missing Value Source: NWS Daily Summary

Daily Weather History Graph

Daily Weather History Graph

Search for Another Location

Airport or City:

Trip Planner

Search our weather history database for the weather conditions in past years. The results will help you decide how hot, cold, wet, or windy it might be!

Date:

Astronomy

Aug. 10, 2013 Rise Set
Actual Time 6:05 AM CDT 8:27 PM CDT
Civil Twilight 5:31 AM CDT 9:00 PM CDT
Nautical Twilight 4:50 AM CDT 9:42 PM CDT
Astronomical Twilight 4:03 AM CDT 10:28 PM CDT
Moon 10:08 AM CDT (8/10) 9:51 PM CDT (8/10)
Length of Visible Light 15h 29m
Length of Day
14h 22m
Waxing Crescent, 14% of the Moon is Illuminated
Aug 10
Waxing Crescent
Aug 14
First Quarter
Aug 20
Full
Aug 28
Last Quarter
Sep 5
New

Hourly Weather History & Observations

Time (CDT) Temp. Dew Point Humidity Pressure Visibility Wind Dir Wind Speed Gust Speed Precip Events Conditions
12:13 AM 59.0 °F 53.6 °F 82% 30.13 in 10.0 mi Calm Calm - N/A   Overcast
12:34 AM 59.0 °F 53.6 °F 82% 30.13 in 10.0 mi NW 3.5 mph - N/A   Overcast
12:54 AM 59.0 °F 53.6 °F 82% 30.13 in 10.0 mi WNW 3.5 mph - N/A   Overcast
1:13 AM 59.0 °F 53.6 °F 82% 30.13 in 10.0 mi Calm Calm - N/A   Overcast
1:34 AM 59.0 °F 53.6 °F 82% 30.13 in 10.0 mi Calm Calm - N/A   Overcast
1:54 AM 59.0 °F 53.6 °F 82% 30.13 in 10.0 mi Calm Calm - N/A   Overcast
2:13 AM 59.0 °F 53.6 °F 82% 30.13 in 10.0 mi Calm Calm - N/A   Overcast
2:34 AM 59.0 °F 53.6 °F 82% 30.14 in 10.0 mi Calm Calm - N/A   Overcast
2:53 AM 57.2 °F 53.6 °F 88% 30.15 in 10.0 mi Calm Calm - N/A   Overcast
3:13 AM 57.2 °F 55.4 °F 94% 30.15 in 10.0 mi Calm Calm - N/A   Overcast
3:34 AM 57.2 °F 55.4 °F 94% 30.15 in 10.0 mi Calm Calm - N/A   Overcast
3:53 AM 57.2 °F 53.6 °F 88% 30.16 in 10.0 mi West 3.5 mph - N/A   Overcast
4:13 AM 57.2 °F 53.6 °F 88% 30.15 in 10.0 mi West 3.5 mph - N/A   Overcast
4:34 AM 57.2 °F 53.6 °F 88% 30.16 in 10.0 mi Calm Calm - N/A   Overcast
4:53 AM 57.2 °F 53.6 °F 88% 30.16 in 10.0 mi Calm Calm - N/A   Overcast
5:14 AM 57.2 °F 53.6 °F 88% 30.16 in 10.0 mi Calm Calm - N/A   Overcast
5:34 AM 55.4 °F 53.6 °F 94% 30.17 in 10.0 mi Calm Calm - N/A   Overcast
5:53 AM 57.2 °F 53.6 °F 88% 30.17 in 10.0 mi Calm Calm - N/A   Overcast
6:14 AM 57.2 °F 53.6 °F 88% 30.17 in 10.0 mi Calm Calm - N/A   Overcast
6:34 AM 57.2 °F 55.4 °F 94% 30.17 in 10.0 mi Calm Calm - N/A   Overcast
6:53 AM 57.2 °F 55.4 °F 94% 30.17 in 10.0 mi Calm Calm - N/A   Overcast
7:14 AM 57.2 °F 55.4 °F 94% 30.17 in 10.0 mi Calm Calm - N/A   Overcast
7:34 AM 59.0 °F 55.4 °F 88% 30.18 in 10.0 mi Calm Calm - N/A   Overcast
7:53 AM 59.0 °F 55.4 °F 88% 30.18 in 10.0 mi North 3.5 mph - N/A   Overcast
8:14 AM 60.8 °F 55.4 °F 82% 30.18 in 10.0 mi North 4.6 mph - N/A   Overcast
8:34 AM 60.8 °F 55.4 °F 82% 30.18 in 10.0 mi North 4.6 mph - N/A   Overcast
8:53 AM 62.6 °F 55.4 °F 77% 30.18 in 10.0 mi Calm Calm - N/A   Overcast
9:14 AM 62.6 °F 55.4 °F 77% 30.18 in 10.0 mi Calm Calm - N/A   Overcast
9:34 AM 64.4 °F 55.4 °F 73% 30.18 in 10.0 mi Calm Calm - N/A   Overcast
9:54 AM 64.4 °F 55.4 °F 73% 30.18 in 10.0 mi South 3.5 mph - N/A   Overcast
10:14 AM 66.2 °F 55.4 °F 68% 30.18 in 10.0 mi Calm Calm - N/A   Overcast
10:33 AM 68.0 °F 55.4 °F 64% 30.18 in 10.0 mi Calm Calm - N/A   Overcast
10:54 AM 68.0 °F 55.4 °F 64% 30.18 in 10.0 mi WSW 4.6 mph - N/A   Overcast
11:14 AM 68.0 °F 55.4 °F 64% 30.18 in 10.0 mi Calm Calm - N/A   Overcast
11:33 AM 68.0 °F 55.4 °F 64% 30.18 in 10.0 mi South 3.5 mph - N/A   Overcast
11:54 AM 68.0 °F 55.4 °F 64% 30.18 in 10.0 mi West 5.8 mph - N/A   Mostly Cloudy
12:14 PM 68.0 °F 53.6 °F 60% 30.18 in 10.0 mi West 4.6 mph - N/A   Overcast
12:34 PM 69.8 °F 51.8 °F 53% 30.18 in 10.0 mi South 3.5 mph - N/A   Overcast
12:54 PM 69.8 °F 51.8 °F 53% 30.18 in 10.0 mi Calm Calm - N/A   Overcast
1:14 PM 69.8 °F 51.8 °F 53% 30.17 in 10.0 mi WNW 3.5 mph - N/A   Overcast
1:34 PM 69.8 °F 51.8 °F 53% 30.17 in 10.0 mi WSW 3.5 mph - N/A   Overcast
1:53 PM 69.8 °F 53.6 °F 56% 30.17 in 10.0 mi SW 4.6 mph - N/A   Overcast
2:14 PM 71.6 °F 51.8 °F 50% 30.17 in 10.0 mi SW 4.6 mph - N/A   Overcast
2:34 PM 71.6 °F 51.8 °F 50% 30.17 in 10.0 mi SW 3.5 mph - N/A   Scattered Clouds
2:53 PM 71.6 °F 51.8 °F 50% 30.16 in 10.0 mi SSW 3.5 mph - N/A   Mostly Cloudy
3:14 PM 73.4 °F 53.6 °F 50% 30.16 in 10.0 mi WNW 5.8 mph - N/A   Overcast
3:34 PM 73.4 °F 51.8 °F 47% 30.15 in 10.0 mi WSW 4.6 mph - N/A   Scattered Clouds
3:54 PM 73.4 °F 51.8 °F 47% 30.14 in 10.0 mi South 4.6 mph - N/A   Scattered Clouds
4:14 PM 71.6 °F 51.8 °F 50% 30.14 in 10.0 mi SSW 5.8 mph - N/A   Mostly Cloudy
4:34 PM 71.6 °F 53.6 °F 53% 30.14 in 10.0 mi SW 5.8 mph - N/A   Mostly Cloudy
4:54 PM 71.6 °F 51.8 °F 50% 30.13 in 10.0 mi South 4.6 mph - N/A   Mostly Cloudy
5:14 PM 69.8 °F 51.8 °F 53% 30.13 in 10.0 mi South 5.8 mph - N/A   Overcast
5:34 PM 73.4 °F 53.6 °F 50% 30.13 in 10.0 mi WSW 8.1 mph - N/A   Overcast
5:54 PM 73.4 °F 51.8 °F 47% 30.13 in 10.0 mi SSW 5.8 mph - N/A   Overcast
6:14 PM 71.6 °F 53.6 °F 53% 30.12 in 10.0 mi WSW 5.8 mph - N/A   Scattered Clouds
6:34 PM 69.8 °F 53.6 °F 56% 30.12 in 10.0 mi SW 5.8 mph - N/A   Clear
6:54 PM 69.8 °F 53.6 °F 56% 30.12 in 10.0 mi SW 5.8 mph - N/A   Clear
7:14 PM 68.0 °F 55.4 °F 64% 30.11 in 10.0 mi SW 4.6 mph - N/A   Clear
7:34 PM 68.0 °F 55.4 °F 64% 30.11 in 10.0 mi SW 4.6 mph - N/A   Clear
7:54 PM 66.2 °F 55.4 °F 68% 30.11 in 10.0 mi SW 4.6 mph - N/A   Clear
8:14 PM 64.4 °F 55.4 °F 73% 30.10 in 10.0 mi Calm Calm - N/A   Clear
8:34 PM 60.8 °F 55.4 °F 82% 30.10 in 10.0 mi Calm Calm - N/A   Clear
8:54 PM 60.8 °F 57.2 °F 88% 30.10 in 10.0 mi Calm Calm - N/A   Clear
9:14 PM 59.0 °F 55.4 °F 88% 30.11 in 10.0 mi Calm Calm - N/A   Clear
9:34 PM 55.4 °F 55.4 °F 100% 30.11 in 10.0 mi Calm Calm - N/A   Clear
9:54 PM 55.4 °F 55.4 °F 100% 30.11 in 10.0 mi Calm Calm - N/A   Clear
10:14 PM 53.6 °F 53.6 °F 100% 30.11 in 10.0 mi Calm Calm - N/A   Clear
10:34 PM 53.6 °F 53.6 °F 100% 30.10 in 10.0 mi Calm Calm - N/A   Clear
10:54 PM 53.6 °F 53.6 °F 100% 30.10 in 10.0 mi Calm Calm - N/A   Clear
11:14 PM 51.8 °F 51.8 °F 100% 30.11 in 10.0 mi Calm Calm - N/A   Clear
11:34 PM 51.8 °F 51.8 °F 100% 30.10 in 10.0 mi Calm Calm - N/A   Clear
11:54 PM 50.0 °F 50.0 °F 100% 30.10 in 10.0 mi Calm Calm - N/A   Clear